When you browse on this site, cookies collect data to enhance your experience and personalize the content and advertising you see.
Visit our Privacy Policy to learn more. By continuing to use the site, you agree to this use of cookies and data.
  • En España
  • Lista de países
  • Para 7 días
  • Temperatura del agua
  • Mapa Satelital
  • El tiempo en el mapa
  • Informadores
  • user-avatar
    Iniciar sesión

    Tiempo cada hora Batina

    Hoy, 21 Julio, Domingo

    Tiempo Temperatura Precipitaciones Viento Presión Humedad
    00:00 +27°C° 0 mm 2 mps 674 mmHg 39%
    01:00 +26°C° 0 mm 2 mps 674 mmHg 40%
    02:00 +26°C° 0 mm 2 mps 673 mmHg 41%
    03:00 +25°C° 0 mm 2 mps 673 mmHg 42%
    04:00 +26°C° 0 mm 2 mps 673 mmHg 40%
    05:00 +27°C° 0 mm 1 mps 674 mmHg 37%
    06:00 +28°C° 0 mm 1 mps 674 mmHg 35%
    07:00 +30°C° 0 mm 2 mps 675 mmHg 31%
    08:00 +33°C° 0 mm 3 mps 675 mmHg 27%
    09:00 +34°C° 0 mm 3 mps 676 mmHg 23%
    10:00 +35°C° 0 mm 4 mps 676 mmHg 22%
    11:00 +36°C° 0 mm 4 mps 676 mmHg 21%
    12:00 +37°C° 0 mm 5 mps 676 mmHg 20%
    13:00 +37°C° 0 mm 5 mps 676 mmHg 20%
    14:00 +37°C° 0 mm 5 mps 675 mmHg 20%
    15:00 +38°C° 0 mm 6 mps 675 mmHg 20%
    16:00 +34°C° 1.2 mm 5 mps 675 mmHg 25%
    17:00 +31°C° 1.2 mm 3 mps 674 mmHg 29%
    18:00 +28°C° 1.2 mm 2 mps 674 mmHg 34%
    19:00 +28°C° 0 mm 2 mps 674 mmHg 36%
    20:00 +27°C° 0 mm 2 mps 674 mmHg 37%
    21:00 +27°C° 0 mm 2 mps 675 mmHg 39%
    22:00 +26°C° 0 mm 2 mps 675 mmHg 42%
    23:00 +25°C° 0 mm 1 mps 675 mmHg 46%

    Mañana, 22 Julio, Lunes

    Tiempo Temperatura Precipitaciones Viento Presión Humedad
    00:00 +24°C° 0 mm 1 mps 675 mmHg 49%
    01:00 +24°C° 0 mm 1 mps 674 mmHg 52%
    02:00 +23°C° 0 mm 1 mps 674 mmHg 54%
    03:00 +21°C° 0 mm 0 mps 674 mmHg 57%
    04:00 +21°C° 0 mm 0 mps 674 mmHg 54%
    05:00 +24°C° 0 mm 1 mps 674 mmHg 51%
    06:00 +25°C° 0 mm 1 mps 675 mmHg 48%
    07:00 +26°C° 0 mm 1 mps 675 mmHg 41%
    08:00 +28°C° 0 mm 1 mps 676 mmHg 35%
    09:00 +29°C° 0 mm 2 mps 677 mmHg 28%
    10:00 +31°C° 0 mm 2 mps 677 mmHg 26%
    11:00 +33°C° 0 mm 3 mps 677 mmHg 23%
    12:00 +34°C° 0 mm 3 mps 677 mmHg 20%
    13:00 +34°C° 0 mm 3 mps 676 mmHg 20%
    14:00 +34°C° 0 mm 3 mps 676 mmHg 19%
    15:00 +35°C° 0 mm 3 mps 676 mmHg 18%
    16:00 +34°C° 0 mm 4 mps 676 mmHg 19%
    17:00 +34°C° 0 mm 5 mps 675 mmHg 21%
    18:00 +33°C° 0 mm 6 mps 675 mmHg 22%
    19:00 +30°C° 0 mm 4 mps 675 mmHg 25%
    20:00 +28°C° 0 mm 3 mps 675 mmHg 29%
    21:00 +27°C° 0 mm 1 mps 675 mmHg 32%
    22:00 +26°C° 0 mm 1 mps 674 mmHg 34%
    23:00 +25°C° 0 mm 1 mps 674 mmHg 36%

    Pasado mañana, 23 Julio, Martes

    Tiempo Temperatura Precipitaciones Viento Presión Humedad
    00:00 +22°C° 0 mm 0 mps 674 mmHg 38%
    01:00 +22°C° 0 mm 0 mps 674 mmHg 40%
    02:00 +21°C° 0 mm 0 mps 673 mmHg 42%
    03:00 +20°C° 0 mm 0 mps 673 mmHg 43%
    04:00 +21°C° 0 mm 0 mps 673 mmHg 41%
    05:00 +24°C° 0 mm 1 mps 674 mmHg 39%
    06:00 +25°C° 0 mm 1 mps 674 mmHg 37%
    07:00 +27°C° 0 mm 1 mps 674 mmHg 35%
    08:00 +28°C° 0 mm 1 mps 675 mmHg 33%
    09:00 +29°C° 0 mm 2 mps 675 mmHg 31%
    10:00 +30°C° 0 mm 2 mps 675 mmHg 27%
    11:00 +31°C° 0 mm 3 mps 675 mmHg 24%
    12:00 +33°C° 0 mm 3 mps 675 mmHg 20%
    13:00 +34°C° 0 mm 3 mps 675 mmHg 19%
    14:00 +34°C° 0 mm 4 mps 674 mmHg 18%
    15:00 +34°C° 0 mm 4 mps 674 mmHg 17%
    16:00 +34°C° 0 mm 3 mps 674 mmHg 18%
    17:00 +33°C° 0 mm 3 mps 674 mmHg 18%
    18:00 +32°C° 0 mm 2 mps 673 mmHg 19%
    19:00 +30°C° 0 mm 2 mps 673 mmHg 24%
    20:00 +29°C° 0 mm 1 mps 673 mmHg 28%
    21:00 +27°C° 0 mm 1 mps 673 mmHg 33%
    22:00 +26°C° 0 mm 1 mps 673 mmHg 34%
    23:00 +26°C° 0 mm 1 mps 672 mmHg 35%

    24 Julio, Miércoles

    Tiempo Temperatura Precipitaciones Viento Presión Humedad
    00:00 +25°C° 0 mm 1 mps 672 mmHg 37%
    01:00 +25°C° 0 mm 1 mps 672 mmHg 37%
    02:00 +24°C° 0 mm 2 mps 672 mmHg 37%
    03:00 +24°C° 0 mm 2 mps 672 mmHg 38%
    04:00 +25°C° 0 mm 2 mps 672 mmHg 35%
    05:00 +25°C° 0 mm 2 mps 672 mmHg 32%
    06:00 +26°C° 0 mm 3 mps 673 mmHg 29%
    07:00 +27°C° 0 mm 3 mps 673 mmHg 26%
    08:00 +29°C° 0 mm 3 mps 674 mmHg 24%
    09:00 +32°C° 0 mm 4 mps 674 mmHg 21%
    10:00 +32°C° 0 mm 4 mps 674 mmHg 20%
    11:00 +33°C° 0 mm 4 mps 674 mmHg 19%
    12:00 +34°C° 0 mm 4 mps 674 mmHg 19%
    13:00 +34°C° 0 mm 4 mps 674 mmHg 18%
    14:00 +35°C° 0 mm 5 mps 673 mmHg 18%
    15:00 +35°C° 0 mm 5 mps 673 mmHg 18%
    16:00 +34°C° 0 mm 5 mps 673 mmHg 19%
    17:00 +34°C° 0 mm 4 mps 672 mmHg 20%
    18:00 +33°C° 0 mm 4 mps 672 mmHg 21%
    19:00 +30°C° 0 mm 3 mps 672 mmHg 25%
    20:00 +29°C° 0 mm 2 mps 672 mmHg 29%
    21:00 +25°C° 0 mm 0 mps 672 mmHg 33%
    22:00 +25°C° 0 mm 0 mps 672 mmHg 34%
    23:00 +26°C° 0 mm 1 mps 671 mmHg 34%

    25 Julio, Jueves

    Tiempo Temperatura Precipitaciones Viento Presión Humedad
    00:00 +26°C° 0 mm 1 mps 671 mmHg 34%
    01:00 +25°C° 0 mm 1 mps 671 mmHg 34%
    02:00 +25°C° 0 mm 1 mps 671 mmHg 34%
    03:00 +25°C° 0 mm 2 mps 671 mmHg 34%
    04:00 +25°C° 0 mm 2 mps 671 mmHg 33%
    05:00 +26°C° 0 mm 2 mps 672 mmHg 31%
    06:00 +27°C° 0 mm 2 mps 672 mmHg 30%
    07:00 +28°C° 0 mm 3 mps 673 mmHg 27%
    08:00 +30°C° 0 mm 4 mps 673 mmHg 23%
    09:00 +33°C° 0 mm 5 mps 674 mmHg 20%
    10:00 +34°C° 0 mm 5 mps 674 mmHg 19%
    11:00 +35°C° 0 mm 6 mps 674 mmHg 17%
    12:00 +36°C° 0 mm 6 mps 674 mmHg 16%
    13:00 +36°C° 0 mm 6 mps 673 mmHg 16%
    14:00 +36°C° 0 mm 6 mps 673 mmHg 16%
    15:00 +36°C° 0 mm 6 mps 672 mmHg 16%
    16:00 +35°C° 0 mm 5 mps 672 mmHg 17%
    17:00 +35°C° 0 mm 4 mps 672 mmHg 18%
    18:00 +34°C° 0 mm 3 mps 672 mmHg 18%
    19:00 +31°C° 0 mm 3 mps 672 mmHg 21%
    20:00 +30°C° 0 mm 2 mps 672 mmHg 24%
    21:00 +28°C° 0 mm 1 mps 672 mmHg 27%
    22:00 +28°C° 0 mm 1 mps 672 mmHg 28%
    23:00 +27°C° 0 mm 1 mps 671 mmHg 29%

    26 Julio, Viernes

    Tiempo Temperatura Precipitaciones Viento Presión Humedad
    00:00 +26°C° 0 mm 1 mps 671 mmHg 29%
    01:00 +26°C° 0 mm 1 mps 671 mmHg 29%
    02:00 +26°C° 0 mm 1 mps 671 mmHg 29%
    03:00 +26°C° 0 mm 2 mps 670 mmHg 28%
    04:00 +26°C° 0 mm 2 mps 671 mmHg 27%
    05:00 +27°C° 0 mm 2 mps 671 mmHg 26%
    06:00 +28°C° 0 mm 2 mps 672 mmHg 25%
    07:00 +30°C° 0 mm 3 mps 672 mmHg 23%
    08:00 +33°C° 0 mm 4 mps 673 mmHg 20%
    09:00 +34°C° 0 mm 4 mps 674 mmHg 18%
    10:00 +35°C° 0 mm 4 mps 674 mmHg 17%
    11:00 +36°C° 0 mm 4 mps 674 mmHg 15%
    12:00 +37°C° 0 mm 4 mps 674 mmHg 14%
    13:00 +37°C° 0 mm 4 mps 673 mmHg 14%
    14:00 +37°C° 0 mm 4 mps 673 mmHg 13%
    15:00 +37°C° 0 mm 4 mps 673 mmHg 13%
    16:00 +36°C° 0 mm 5 mps 672 mmHg 16%
    17:00 +35°C° 0 mm 6 mps 672 mmHg 20%
    18:00 +33°C° 0 mm 7 mps 672 mmHg 24%
    19:00 +32°C° 0 mm 6 mps 672 mmHg 29%
    20:00 +29°C° 0 mm 4 mps 672 mmHg 33%
    21:00 +27°C° 0 mm 3 mps 672 mmHg 38%
    22:00 +27°C° 0 mm 3 mps 672 mmHg 39%
    23:00 +26°C° 0 mm 3 mps 672 mmHg 40%
    Mostrar más